Weather History for Oxford, CT

Change the Weather History Date:

Monday, November 19, 2012

  Actual Average Record
Temperature  
Mean Temperature 37 °F -  
Max Temperature 44 °F 46 °F 60 °F (2003)
Min Temperature 30 °F 31 °F 17 °F (1997)
Degree Days  
Heating Degree Days 28    
Moisture  
Dew Point 28 °F    
Average Humidity 74    
Maximum Humidity 86    
Minimum Humidity 57    
Precipitation  
Precipitation 0.00 in - - ()
Sea Level Pressure  
Sea Level Pressure 30.45 in    
Wind  
Wind Speed 6 mph (NE)    
Max Wind Speed 12 mph    
Max Gust Speed 16 mph    
Visibility 10 miles    
Events      
Averages and records for this station are not official NWS values.
T = Trace of Precipitation, MM = Missing Value Source: NWS Daily Summary

Daily Weather History Graph

Daily Weather History Graph

Search for Another Location

Airport:

Trip Planner

Search our weather history database for the weather conditions in past years. The results will help you decide how hot, cold, wet, or windy it might be!

Date:

Astronomy

Nov. 19, 2012 Rise Set
Actual Time 6:46 AM EST 4:29 PM EST
Civil Twilight 6:16 AM EST 4:59 PM EST
Nautical Twilight 5:42 AM EST 5:33 PM EST
Astronomical Twilight 5:09 AM EST 6:05 PM EST
Moon 11:46 AM EST (11/19) 10:55 PM EST (11/19)
Length of Visible Light 10h 42m
Length of Day
9h 42m
Waxing Crescent, 40% of the Moon is Illuminated
Nov 19
Waxing Crescent
Nov 20
First Quarter
Nov 28
Full
Dec 6
Last Quarter
Dec 13
New

Hourly Weather History & Observations

Time (EST) Temp. Windchill Dew Point Humidity Pressure Visibility Wind Dir Wind Speed Gust Speed Precip Events Conditions
12:15 AM 33.8 °F 29.6 °F 24.8 °F 70% 30.60 in 10.0 mi NE 4.6 mph - N/A   Clear
12:55 AM 32.0 °F 26.4 °F 24.8 °F 75% 30.59 in 10.0 mi NNE 5.8 mph - N/A   Clear
1:15 AM 32.0 °F 25.6 °F 24.8 °F 75% 30.58 in 10.0 mi NNE 6.9 mph - N/A   Clear
1:35 AM 32.0 °F 26.4 °F 26.6 °F 80% 30.57 in 10.0 mi NNE 5.8 mph - N/A   Clear
1:55 AM 33.8 °F 29.6 °F 26.6 °F 75% 30.57 in 10.0 mi NE 4.6 mph - N/A   Clear
2:15 AM 33.8 °F 28.6 °F 26.6 °F 75% 30.57 in 10.0 mi ENE 5.8 mph - N/A   Clear
2:35 AM 32.0 °F 24.8 °F 26.6 °F 80% 30.56 in 10.0 mi NNE 8.1 mph - N/A   Clear
2:55 AM 32.0 °F 24.8 °F 26.6 °F 80% 30.56 in 10.0 mi NE 8.1 mph - N/A   Clear
3:15 AM 32.0 °F 25.6 °F 26.6 °F 80% 30.55 in 10.0 mi NNE 6.9 mph - N/A   Clear
3:35 AM 32.0 °F 25.6 °F 26.6 °F 80% 30.54 in 10.0 mi NE 6.9 mph - N/A   Clear
3:55 AM 32.0 °F 24.8 °F 26.6 °F 80% 30.54 in 10.0 mi NNE 8.1 mph - N/A   Clear
4:35 AM 30.2 °F 23.4 °F 24.8 °F 80% 30.54 in 10.0 mi NNE 6.9 mph - N/A   Clear
4:55 AM 30.2 °F 25.4 °F 26.6 °F 86% 30.54 in 10.0 mi NE 4.6 mph - N/A   Clear
5:15 AM 30.2 °F 21.9 °F 26.6 °F 86% 30.54 in 10.0 mi NNE 9.2 mph - N/A   Clear
5:35 AM 30.2 °F 25.4 °F 26.6 °F 86% 30.52 in 10.0 mi NE 4.6 mph - N/A   Clear
5:45 AM 30.2 °F 24.3 °F 24.8 °F 80% 30.52 in 10.0 mi NE 5.8 mph - N/A   Clear
6:45 AM 30.2 °F 22.6 °F 26.6 °F 86% 30.52 in 10.0 mi ENE 8.1 mph - N/A   Clear
7:45 AM 30.2 °F 22.6 °F 24.8 °F 80% 30.52 in 10.0 mi NE 8.1 mph - N/A   Clear
8:45 AM 35.6 °F 27.5 °F 28.4 °F 75% 30.51 in 10.0 mi NE 11.5 mph - N/A   Clear
9:45 AM 37.4 °F 29.8 °F 28.4 °F 70% 30.49 in 10.0 mi NE 11.5 mph - N/A   Mostly Cloudy
10:45 AM 42.8 °F 37.5 °F 30.2 °F 61% 30.48 in 10.0 mi ENE 9.2 mph 16.1 mph N/A   Mostly Cloudy
11:55 AM 42.8 °F 37.5 °F 30.2 °F 61% 30.44 in 10.0 mi ENE 9.2 mph - N/A   Mostly Cloudy
12:45 PM 44.6 °F 40.7 °F 30.2 °F 57% 30.41 in 10.0 mi ENE 6.9 mph - N/A   Mostly Cloudy
2:45 PM 44.6 °F 42.2 °F 33.8 °F 66% 30.38 in 10.0 mi NE 4.6 mph - N/A   Scattered Clouds
3:45 PM 44.6 °F 40.7 °F 33.8 °F 66% 30.37 in 10.0 mi NE 6.9 mph - N/A   Mostly Cloudy
4:45 PM 42.8 °F 41.1 °F 30.2 °F 61% 30.36 in 10.0 mi NE 3.5 mph - N/A   Partly Cloudy
5:45 PM 39.2 °F 35.9 °F 30.2 °F 70% 30.36 in 10.0 mi NNE 4.6 mph - N/A   Clear
6:45 PM 39.2 °F - 30.2 °F 70% 30.35 in 10.0 mi Calm Calm - N/A   Clear
7:45 PM 35.6 °F - 28.4 °F 75% 30.33 in 10.0 mi Calm Calm - N/A   Clear
8:55 PM 35.6 °F 29.9 °F 28.4 °F 75% 30.31 in 10.0 mi NE 6.9 mph - N/A   Clear
9:15 PM 37.4 °F 32.8 °F 30.2 °F 75% 30.31 in 10.0 mi NE 5.8 mph - N/A   Clear
9:35 PM 37.4 °F - 28.4 °F 70% 30.31 in 10.0 mi Calm Calm - N/A   Clear
10:15 PM 37.4 °F - 28.4 °F 70% 30.29 in 10.0 mi Calm Calm - N/A   Clear
10:35 PM 35.6 °F - 26.6 °F 70% 30.29 in 10.0 mi Calm Calm - N/A   Clear
10:55 PM 35.6 °F 31.7 °F 26.6 °F 70% 30.27 in 10.0 mi NNE 4.6 mph - N/A   Clear
11:15 PM 35.6 °F 32.8 °F 26.6 °F 70% 30.27 in 10.0 mi NNE 3.5 mph - N/A   Clear
11:35 PM 35.6 °F 30.7 °F 28.4 °F 75% 30.26 in 10.0 mi NE 5.8 mph - N/A   Clear
11:55 PM 35.6 °F 32.8 °F 28.4 °F 75% 30.27 in 10.0 mi North 3.5 mph - N/A   Clear